,,,PA_Meas_PMT16A,,PR_Meas_QMR101_102,,RH_Meas_QMH101,,SR_Meas_QMS101,,TA_Meas_QMH101,,GenWind,,GenWind,
date,time,status,PA,status,PR,status,RH,status,SR,status,TA,status,DirAvg,status,SpdAvg,
2012-10-22, 00:00:04,VALID,1009.45,VALID,0,VALID,104,VALID,0,VALID,23.2246,VALID,62,VALID,0,
2012-10-22, 00:01:04,VALID,1009.4,VALID,0,VALID,104,VALID,0,VALID,23.2246,VALID,62,VALID,0,
2012-10-22, 00:02:04,VALID,1009.41,VALID,0,VALID,104,VALID,0.112112,VALID,23.2459,VALID,62,VALID,0,
2012-10-22, 00:03:04,VALID,1009.38,VALID,0,VALID,104,VALID,0,VALID,23.2459,VALID,62,VALID,0.358594,
2012-10-22, 00:04:04,VALID,1009.41,VALID,0,VALID,104,VALID,0,VALID,23.2654,VALID,63,VALID,0.00429688,
2012-10-22, 00:05:04,VALID,1009.39,VALID,0,VALID,104,VALID,0,VALID,23.2459,VALID,62,VALID,0,
2012-10-22, 00:06:04,VALID,1009.38,VALID,0,VALID,104,VALID,0,VALID,23.2246,VALID,62,VALID,0,
2012-10-22, 00:07:04,VALID,1009.37,VALID,0,VALID,104,VALID,0,VALID,23.2459,VALID,62,VALID,0,
2012-10-22, 00:08:04,VALID,1009.37,VALID,0,VALID,104,VALID,0,VALID,23.2654,VALID,62,VALID,0,
2012-10-22, 00:09:04,VALID,1009.35,VALID,0,VALID,104,VALID,0,VALID,23.2654,VALID,62,VALID,0,
2012-10-22, 00:10:04,VALID,1009.33,VALID,0,VALID,104,VALID,0,VALID,23.2848,VALID,62,VALID,0,
2012-10-22, 00:11:04,VALID,1009.34,VALID,0,VALID,104,VALID,0,VALID,23.2848,VALID,62,VALID,0,
2012-10-22, 00:12:04,VALID,1009.33,VALID,0,VALID,104,VALID,0,VALID,23.3043,VALID,62,VALID,0,
2012-10-22, 00:13:04,VALID,1009.29,VALID,0,VALID,104,VALID,0,VALID,23.2848,VALID,62,VALID,0,
2012-10-22, 00:14:04,VALID,1009.26,VALID,0,VALID,104,VALID,0,VALID,23.2848,VALID,62,VALID,0,
2012-10-22, 00:15:04,VALID,1009.25,VALID,0,VALID,104,VALID,0,VALID,23.2654,VALID,60,VALID,0,
2012-10-22, 00:16:04,VALID,1009.22,VALID,0,VALID,104,VALID,0,VALID,23.2848,VALID,63,VALID,0,
2012-10-22, 00:17:04,VALID,1009.19,VALID,0,VALID,104,VALID,0,VALID,23.2459,VALID,61,VALID,0,
2012-10-22, 00:18:04,VALID,1009.22,VALID,0,VALID,104,VALID,0,VALID,23.2459,VALID,61,VALID,0,
2012-10-22, 00:19:04,VALID,1009.22,VALID,0,VALID,104,VALID,0.112112,VALID,23.2459,VALID,62,VALID,0,
2012-10-22, 00:20:04,VALID,1009.24,VALID,0,VALID,104,VALID,0,VALID,23.2246,VALID,61,VALID,0,
2012-10-22, 00:21:04,VALID,1009.21,VALID,0,VALID,104,VALID,0,VALID,23.2459,VALID,61,VALID,0,
2012-10-22, 00:22:04,VALID,1009.24,VALID,0,VALID,104,VALID,0,VALID,23.2459,VALID,62,VALID,0,
2012-10-22, 00:23:04,VALID,1009.24,VALID,0,VALID,104,VALID,0,VALID,23.2264,VALID,62,VALID,0,
2012-10-22, 00:24:04,VALID,1009.24,VALID,0,VALID,104,VALID,0,VALID,23.2264,VALID,61,VALID,0,
2012-10-22, 00:25:04,VALID,1009.26,VALID,0,VALID,104,VALID,0,VALID,23.2459,VALID,62,VALID,0,
2012-10-22, 00:26:04,VALID,1009.25,VALID,0,VALID,104,VALID,0,VALID,23.2459,VALID,62,VALID,0.141016,
2012-10-22, 00:27:04,VALID,1009.23,VALID,0,VALID,104,VALID,0,VALID,23.2459,VALID,62,VALID,0.418359,
2012-10-22, 00:28:04,VALID,1009.22,VALID,0,VALID,104,VALID,0,VALID,23.2264,VALID,62,VALID,0.339063,
2012-10-22, 00:29:04,VALID,1009.22,VALID,0,VALID,104,VALID,0,VALID,23.2459,VALID,62,VALID,0.238281,
2012-10-22, 00:30:04,VALID,1009.2,VALID,0,VALID,104,VALID,0,VALID,23.2069,VALID,62,VALID,0.149609,
2012-10-22, 00:31:04,VALID,1009.17,VALID,0,VALID,104,VALID,0,VALID,23.1874,VALID,62,VALID,0.174219,
2012-10-22, 00:32:04,VALID,1009.21,VALID,0,VALID,104,VALID,0,VALID,23.1874,VALID,62,VALID,0.167969,
2012-10-22, 00:33:04,VALID,1009.22,VALID,0,VALID,104,VALID,0,VALID,23.1874,VALID,62,VALID,0.236328,
2012-10-22, 00:34:04,VALID,1009.24,VALID,0,VALID,104,VALID,0,VALID,23.1485,VALID,62,VALID,0.300781,
2012-10-22, 00:35:04,VALID,1009.27,VALID,0,VALID,104,VALID,0,VALID,23.129,VALID,62,VALID,0.289453,
2012-10-22, 00:36:04,VALID,1009.29,VALID,0,VALID,104,VALID,0.112112,VALID,23.1272,VALID,62,VALID,0.495703,
2012-10-22, 00:37:04,VALID,1009.29,VALID,0,VALID,104,VALID,0,VALID,23.1679,VALID,75,VALID,0.624609,
2012-10-22, 00:38:04,VALID,1009.31,VALID,0,VALID,104,VALID,0,VALID,23.1874,VALID,76,VALID,0.426562,
2012-10-22, 00:39:04,VALID,1009.29,VALID,0,VALID,104,VALID,0,VALID,23.2069,VALID,95,VALID,0.661328,
2012-10-22, 00:40:04,VALID,1009.29,VALID,0,VALID,104,VALID,0.112112,VALID,23.2264,VALID,95,VALID,0.376172,
2012-10-22, 00:41:04,VALID,1009.24,VALID,0,VALID,104,VALID,0,VALID,23.2264,VALID,96,VALID,0,
2012-10-22, 00:42:04,VALID,1009.25,VALID,0,VALID,104,VALID,0,VALID,23.2459,VALID,87,VALID,0,
2012-10-22, 00:43:04,VALID,1009.24,VALID,0,VALID,104,VALID,0,VALID,23.2264,VALID,87,VALID,0,
2012-10-22, 00:44:04,VALID,1009.23,VALID,0,VALID,104,VALID,0,VALID,23.2264,VALID,87,VALID,0,
2012-10-22, 00:45:04,VALID,1009.21,VALID,0,VALID,104,VALID,0,VALID,23.2264,VALID,94,VALID,1.03984,
2012-10-22, 00:46:04,VALID,1009.25,VALID,0,VALID,104,VALID,0,VALID,23.2264,VALID,89,VALID,0.944922,
2012-10-22, 00:47:04,VALID,1009.24,VALID,0,VALID,104,VALID,0,VALID,23.2069,VALID,82,VALID,0.986719,
2012-10-22, 00:48:04,VALID,1009.24,VALID,0,VALID,104,VALID,0,VALID,23.1857,VALID,82,VALID,0.7,
2012-10-22, 00:49:04,VALID,1009.24,VALID,0,VALID,104,VALID,0.112112,VALID,23.1874,VALID,88,VALID,0.782031,
2012-10-22, 00:50:04,VALID,1009.22,VALID,0,VALID,104,VALID,0,VALID,23.1662,VALID,81,VALID,0.850781,
2012-10-22, 00:51:04,VALID,1009.18,VALID,0,VALID,104,VALID,0.112112,VALID,23.1467,VALID,81,VALID,0.921484,
2012-10-22, 00:52:04,VALID,1009.16,VALID,0,VALID,104,VALID,0.112112,VALID,23.1272,VALID,81,VALID,0.4375,
2012-10-22, 00:53:04,VALID,1009.17,VALID,0,VALID,104,VALID,0.112112,VALID,23.1485,VALID,78,VALID,0.463672,
2012-10-22, 00:54:04,VALID,1009.09,VALID,0,VALID,104,VALID,0,VALID,23.1485,VALID,77,VALID,0.229297,
2012-10-22, 00:55:04,VALID,1009.08,VALID,0,VALID,104,VALID,0.112112,VALID,23.1485,VALID,77,VALID,0.172266,
2012-10-22, 00:56:04,VALID,1009.05,VALID,0,VALID,104,VALID,0,VALID,23.1095,VALID,77,VALID,0.0015625,
2012-10-22, 00:57:04,VALID,1008.99,VALID,0,VALID,104,VALID,0.112112,VALID,23.1095,VALID,76,VALID,0.380469,
2012-10-22, 00:58:04,VALID,1009.01,VALID,0,VALID,104,VALID,0,VALID,23.1095,VALID,76,VALID,0.0175781,
2012-10-22, 00:59:04,VALID,1008.95,VALID,0,VALID,104,VALID,0,VALID,23.1095,VALID,76,VALID,0.0367187,
2012-10-22, 01:00:04,VALID,1008.94,VALID,0,VALID,104,VALID,0.112112,VALID,23.1095,VALID,76,VALID,0.163281,
2012-10-22, 01:01:04,VALID,1008.92,VALID,0,VALID,104,VALID,0,VALID,23.1095,VALID,76,VALID,0,
2012-10-22, 01:02:04,VALID,1008.9,VALID,0,VALID,104,VALID,0.112112,VALID,23.1095,VALID,76,VALID,0.203516,
2012-10-22, 01:03:04,VALID,1008.89,VALID,0,VALID,104,VALID,0,VALID,23.09,VALID,76,VALID,0.291797,
2012-10-22, 01:04:04,VALID,1008.88,VALID,0,VALID,104,VALID,0.112112,VALID,23.0705,VALID,76,VALID,0,
2012-10-22, 01:05:04,VALID,1008.86,VALID,0,VALID,104,VALID,0,VALID,23.0298,VALID,76,VALID,0,
2012-10-22, 01:06:04,VALID,1008.87,VALID,0,VALID,104,VALID,0.112112,VALID,23.0316,VALID,76,VALID,0,
2012-10-22, 01:07:04,VALID,1008.88,VALID,0,VALID,104,VALID,0,VALID,23.0316,VALID,76,VALID,0.278906,
2012-10-22, 01:08:04,VALID,1008.89,VALID,0,VALID,104,VALID,0.112112,VALID,23.0103,VALID,76,VALID,0,
2012-10-22, 01:09:04,VALID,1008.85,VALID,0,VALID,104,VALID,0.112112,VALID,23.0103,VALID,76,VALID,0,
2012-10-22, 01:10:04,VALID,1008.83,VALID,0,VALID,104,VALID,0,VALID,23.0121,VALID,76,VALID,0,
2012-10-22, 01:11:04,VALID,1008.81,VALID,0,VALID,104,VALID,0.112112,VALID,22.9926,VALID,76,VALID,0,
2012-10-22, 01:12:04,VALID,1008.81,VALID,0,VALID,104,VALID,0,VALID,22.9731,VALID,76,VALID,0,
2012-10-22, 01:13:04,VALID,1008.78,VALID,0,VALID,104,VALID,0.112112,VALID,22.9342,VALID,76,VALID,0,
2012-10-22, 01:14:04,VALID,1008.78,VALID,0,VALID,104,VALID,0.112112,VALID,22.8952,VALID,76,VALID,0,
2012-10-22, 01:15:04,VALID,1008.73,VALID,0,VALID,104,VALID,0,VALID,22.8757,VALID,76,VALID,0,
2012-10-22, 01:16:04,VALID,1008.72,VALID,0,VALID,104,VALID,0.112112,VALID,22.874,VALID,76,VALID,0,
2012-10-22, 01:17:04,VALID,1008.74,VALID,0,VALID,104,VALID,0.112112,VALID,22.8757,VALID,76,VALID,0,
2012-10-22, 01:18:04,VALID,1008.73,VALID,0,VALID,104,VALID,0,VALID,22.858,VALID,76,VALID,0,
2012-10-22, 01:19:04,VALID,1008.77,VALID,0,VALID,104,VALID,0,VALID,22.8173,VALID,76,VALID,0,
2012-10-22, 01:20:04,VALID,1008.78,VALID,0,VALID,104,VALID,0,VALID,22.7978,VALID,76,VALID,0,
2012-10-22, 01:21:04,VALID,1008.75,VALID,0,VALID,104,VALID,0,VALID,22.8173,VALID,76,VALID,0,
2012-10-22, 01:22:04,VALID,1008.74,VALID,0,VALID,104,VALID,0,VALID,22.8368,VALID,76,VALID,0,
2012-10-22, 01:23:04,VALID,1008.72,VALID,0,VALID,104,VALID,0,VALID,22.8173,VALID,76,VALID,0,
2012-10-22, 01:24:04,VALID,1008.71,VALID,0,VALID,104,VALID,0,VALID,22.8385,VALID,76,VALID,0,
2012-10-22, 01:25:04,VALID,1008.68,VALID,0,VALID,104,VALID,0,VALID,22.8173,VALID,76,VALID,0,
2012-10-22, 01:26:04,VALID,1008.64,VALID,0,VALID,104,VALID,0,VALID,22.8173,VALID,76,VALID,0,
2012-10-22, 01:27:04,VALID,1008.61,VALID,0,VALID,104,VALID,0,VALID,22.8385,VALID,76,VALID,0,
2012-10-22, 01:28:04,VALID,1008.61,VALID,0,VALID,104,VALID,0,VALID,22.858,VALID,76,VALID,0,
2012-10-22, 01:29:04,VALID,1008.55,VALID,0,VALID,104,VALID,0,VALID,22.858,VALID,76,VALID,0,
2012-10-22, 01:30:04,VALID,1008.54,VALID,0,VALID,104,VALID,0,VALID,22.8368,VALID,55,VALID,0,
2012-10-22, 01:31:04,VALID,1008.52,VALID,0,VALID,104,VALID,0,VALID,22.858,VALID,55,VALID,0,
2012-10-22, 01:32:04,VALID,1008.48,VALID,0,VALID,104,VALID,0,VALID,22.858,VALID,55,VALID,0,
2012-10-22, 01:33:04,VALID,1008.48,VALID,0,VALID,104,VALID,0.112112,VALID,22.8757,VALID,55,VALID,0,
2012-10-22, 01:34:04,VALID,1008.5,VALID,0,VALID,104,VALID,0.112112,VALID,22.8757,VALID,55,VALID,0,
2012-10-22, 01:35:04,VALID,1008.47,VALID,0,VALID,104,VALID,0,VALID,22.8562,VALID,55,VALID,0,
2012-10-22, 01:36:04,VALID,1008.47,VALID,0,VALID,104,VALID,0,VALID,22.8368,VALID,55,VALID,0,
2012-10-22, 01:37:04,VALID,1008.47,VALID,0,VALID,104,VALID,0.112112,VALID,22.8155,VALID,55,VALID,0,
2012-10-22, 01:38:04,VALID,1008.47,VALID,0,VALID,104,VALID,0.112112,VALID,22.7978,VALID,55,VALID,0,
2012-10-22, 01:39:04,VALID,1008.47,VALID,0,VALID,104,VALID,0.112112,VALID,22.8368,VALID,55,VALID,0,
2012-10-22, 01:40:04,VALID,1008.46,VALID,0,VALID,104,VALID,0,VALID,22.7961,VALID,55,VALID,0,
2012-10-22, 01:41:04,VALID,1008.43,VALID,0,VALID,104,VALID,0.112112,VALID,22.7961,VALID,55,VALID,0,
2012-10-22, 01:42:04,VALID,1008.42,VALID,0,VALID,104,VALID,0.112112,VALID,22.7978,VALID,55,VALID,0,
2012-10-22, 01:43:04,VALID,1008.35,VALID,0,VALID,104,VALID,0.112112,VALID,22.8173,VALID,37,VALID,0,
2012-10-22, 01:44:04,VALID,1008.31,VALID,0,VALID,104,VALID,0.112112,VALID,22.7766,VALID,23,VALID,0,
2012-10-22, 01:45:04,VALID,1008.28,VALID,0,VALID,104,VALID,0.112112,VALID,22.7961,VALID,339,VALID,0.691797,
2012-10-22, 01:46:04,VALID,1008.27,VALID,0,VALID,104,VALID,0.112112,VALID,22.8155,VALID,318,VALID,0.737891,
2012-10-22, 01:47:04,VALID,1008.29,VALID,0,VALID,104,VALID,0,VALID,22.8155,VALID,318,VALID,0.325781,
2012-10-22, 01:48:04,VALID,1008.29,VALID,0,VALID,104,VALID,0,VALID,22.8173,VALID,318,VALID,0.218359,
2012-10-22, 01:49:04,VALID,1008.31,VALID,0,VALID,104,VALID,0,VALID,22.7961,VALID,318,VALID,0,
2012-10-22, 01:50:04,VALID,1008.33,VALID,0,VALID,104,VALID,0.112112,VALID,22.8155,VALID,318,VALID,0,
2012-10-22, 01:51:04,VALID,1008.32,VALID,0,VALID,104,VALID,0.112112,VALID,22.8173,VALID,318,VALID,0,
2012-10-22, 01:52:04,VALID,1008.32,VALID,0,VALID,104,VALID,0,VALID,22.7961,VALID,318,VALID,0.0597656,
2012-10-22, 01:53:04,VALID,1008.26,VALID,0,VALID,104,VALID,0,VALID,22.7961,VALID,318,VALID,0.3625,
2012-10-22, 01:54:04,VALID,1008.2,VALID,0,VALID,104,VALID,0,VALID,22.8173,VALID,318,VALID,0.255469,
2012-10-22, 01:55:04,VALID,1008.19,VALID,0,VALID,104,VALID,0,VALID,22.8173,VALID,318,VALID,0,
2012-10-22, 01:56:04,VALID,1008.17,VALID,0,VALID,104,VALID,0,VALID,22.7961,VALID,318,VALID,0,
2012-10-22, 01:57:04,VALID,1008.13,VALID,0,VALID,104,VALID,0,VALID,22.8385,VALID,318,VALID,0.187891,
2012-10-22, 01:58:04,VALID,1008.16,VALID,0,VALID,104,VALID,0,VALID,22.8368,VALID,318,VALID,0.101953,
2012-10-22, 01:59:04,VALID,1008.18,VALID,0,VALID,104,VALID,0,VALID,22.8173,VALID,318,VALID,0,
2012-10-22, 02:00:04,VALID,1008.17,VALID,0,VALID,104,VALID,0,VALID,22.8173,VALID,318,VALID,0.00351562,
2012-10-22, 02:01:04,VALID,1008.18,VALID,0,VALID,104,VALID,0,VALID,22.8173,VALID,318,VALID,0,
2012-10-22, 02:02:04,VALID,1008.19,VALID,0,VALID,104,VALID,0,VALID,22.7766,VALID,318,VALID,0.307031,
2012-10-22, 02:03:04,VALID,1008.21,VALID,0,VALID,104,VALID,0,VALID,22.7978,VALID,318,VALID,0.348437,
2012-10-22, 02:04:04,VALID,1008.18,VALID,0,VALID,104,VALID,0.112112,VALID,22.7978,VALID,318,VALID,0.439844,
2012-10-22, 02:05:04,VALID,1008.19,VALID,0,VALID,104,VALID,0,VALID,22.7783,VALID,318,VALID,0.146484,
2012-10-22, 02:06:04,VALID,1008.18,VALID,0,VALID,104,VALID,0,VALID,22.7783,VALID,318,VALID,0.3875,
2012-10-22, 02:07:04,VALID,1008.19,VALID,0,VALID,104,VALID,0,VALID,22.7783,VALID,318,VALID,0.325391,
2012-10-22, 02:08:04,VALID,1008.21,VALID,0,VALID,104,VALID,0.112112,VALID,22.7783,VALID,318,VALID,0.173047,
2012-10-22, 02:09:04,VALID,1008.16,VALID,0,VALID,104,VALID,0,VALID,22.7571,VALID,318,VALID,0.447656,
2012-10-22, 02:10:04,VALID,1008.17,VALID,0,VALID,104,VALID,0,VALID,22.7588,VALID,319,VALID,0.0976563,
2012-10-22, 02:11:04,VALID,1008.15,VALID,0,VALID,104,VALID,0,VALID,22.7588,VALID,318,VALID,0.028125,
2012-10-22, 02:12:04,VALID,1008.1,VALID,0,VALID,104,VALID,0,VALID,22.7588,VALID,318,VALID,0.00117188,
2012-10-22, 02:13:04,VALID,1008.1,VALID,0,VALID,104,VALID,0.112112,VALID,22.7588,VALID,318,VALID,0,
2012-10-22, 02:14:04,VALID,1008.06,VALID,0,VALID,104,VALID,0.112112,VALID,22.7376,VALID,318,VALID,0,
2012-10-22, 02:15:04,VALID,1008.04,VALID,0,VALID,104,VALID,0,VALID,22.7588,VALID,318,VALID,0,
2012-10-22, 02:16:04,VALID,1008.05,VALID,0,VALID,104,VALID,0.112112,VALID,22.7588,VALID,318,VALID,0,
2012-10-22, 02:17:04,VALID,1008.02,VALID,0,VALID,104,VALID,0,VALID,22.7588,VALID,318,VALID,0,
2012-10-22, 02:18:04,VALID,1008.02,VALID,0,VALID,104,VALID,0,VALID,22.7588,VALID,318,VALID,0,
2012-10-22, 02:19:04,VALID,1008,VALID,0,VALID,104,VALID,0,VALID,22.7588,VALID,318,VALID,0.065625,
2012-10-22, 02:20:04,VALID,1007.98,VALID,0,VALID,104,VALID,0,VALID,22.7376,VALID,318,VALID,0,
2012-10-22, 02:21:04,VALID,1007.96,VALID,0,VALID,104,VALID,0,VALID,22.7394,VALID,318,VALID,0.000390625,
2012-10-22, 02:22:04,VALID,1007.96,VALID,0,VALID,104,VALID,0,VALID,22.7588,VALID,318,VALID,0,
2012-10-22, 02:23:04,VALID,1007.92,VALID,0,VALID,104,VALID,0,VALID,22.7182,VALID,318,VALID,0,
2012-10-22, 02:24:05,VALID,1007.92,VALID,0,VALID,104,VALID,0,VALID,22.7199,VALID,318,VALID,0,
2012-10-22, 02:25:05,VALID,1007.93,VALID,0,VALID,104,VALID,0,VALID,22.7199,VALID,318,VALID,0,
2012-10-22, 02:26:05,VALID,1007.92,VALID,0,VALID,104,VALID,0,VALID,22.7004,VALID,318,VALID,0,
2012-10-22, 02:27:05,VALID,1007.92,VALID,0,VALID,104,VALID,0,VALID,22.6792,VALID,318,VALID,0,
2012-10-22, 02:28:05,VALID,1007.92,VALID,0,VALID,104,VALID,0,VALID,22.6792,VALID,318,VALID,0.167187,
2012-10-22, 02:29:05,VALID,1007.92,VALID,0,VALID,104,VALID,0,VALID,22.6597,VALID,318,VALID,0.113281,
2012-10-22, 02:30:05,VALID,1007.92,VALID,0,VALID,104,VALID,0,VALID,22.6809,VALID,318,VALID,0,
2012-10-22, 02:31:05,VALID,1007.92,VALID,0,VALID,104,VALID,0,VALID,22.6614,VALID,318,VALID,0.0242187,
2012-10-22, 02:32:05,VALID,1007.93,VALID,0,VALID,104,VALID,0,VALID,22.6809,VALID,318,VALID,0.308203,
2012-10-22, 02:33:05,VALID,1007.95,VALID,0,VALID,104,VALID,0,VALID,22.6809,VALID,318,VALID,0.361328,
2012-10-22, 02:34:05,VALID,1007.93,VALID,0,VALID,104,VALID,0,VALID,22.6597,VALID,318,VALID,0.385156,
2012-10-22, 02:35:05,VALID,1007.93,VALID,0,VALID,104,VALID,0,VALID,22.7004,VALID,318,VALID,0.246875,
2012-10-22, 02:36:05,VALID,1007.93,VALID,0,VALID,104,VALID,0,VALID,22.6809,VALID,318,VALID,0,
2012-10-22, 02:37:05,VALID,1007.9,VALID,0,VALID,104,VALID,0,VALID,22.6809,VALID,318,VALID,0,
2012-10-22, 02:38:05,VALID,1007.9,VALID,0,VALID,104,VALID,0,VALID,22.6809,VALID,319,VALID,0.126563,
2012-10-22, 02:39:05,VALID,1007.9,VALID,0,VALID,104,VALID,0,VALID,22.6597,VALID,318,VALID,0,
2012-10-22, 02:40:05,VALID,1007.9,VALID,0,VALID,104,VALID,0,VALID,22.6597,VALID,319,VALID,0,
2012-10-22, 02:41:05,VALID,1007.89,VALID,0,VALID,104,VALID,0,VALID,22.6614,VALID,318,VALID,0,
2012-10-22, 02:42:05,VALID,1007.89,VALID,0,VALID,104,VALID,0,VALID,22.6614,VALID,318,VALID,0,
2012-10-22, 02:43:05,VALID,1007.87,VALID,0,VALID,104,VALID,0,VALID,22.6614,VALID,318,VALID,0,
2012-10-22, 02:44:05,VALID,1007.88,VALID,0,VALID,104,VALID,0,VALID,22.6208,VALID,318,VALID,0,
2012-10-22, 02:45:05,VALID,1007.87,VALID,0,VALID,104,VALID,0.112112,VALID,22.6208,VALID,319,VALID,0,
2012-10-22, 02:46:05,VALID,1007.9,VALID,0,VALID,104,VALID,0,VALID,22.6208,VALID,318,VALID,0,
2012-10-22, 02:47:05,VALID,1007.9,VALID,0,VALID,104,VALID,0,VALID,22.6208,VALID,318,VALID,0.25,
2012-10-22, 02:48:05,VALID,1007.91,VALID,0,VALID,104,VALID,0.112112,VALID,22.6225,VALID,318,VALID,0.233203,
2012-10-22, 02:49:05,VALID,1007.9,VALID,0,VALID,104,VALID,0,VALID,22.6225,VALID,318,VALID,0.0933594,
2012-10-22, 02:50:05,VALID,1007.93,VALID,0,VALID,104,VALID,0,VALID,22.603,VALID,319,VALID,0.160547,
2012-10-22, 02:51:05,VALID,1007.92,VALID,0,VALID,104,VALID,0,VALID,22.603,VALID,318,VALID,0.0332031,
2012-10-22, 02:52:05,VALID,1007.93,VALID,0,VALID,104,VALID,0,VALID,22.5835,VALID,318,VALID,0.160156,
2012-10-22, 02:53:05,VALID,1007.94,VALID,0,VALID,104,VALID,0,VALID,22.5623,VALID,318,VALID,0.0105469,
2012-10-22, 02:54:05,VALID,1007.92,VALID,0,VALID,104,VALID,0.112112,VALID,22.564,VALID,318,VALID,0.0375,
2012-10-22, 02:55:05,VALID,1007.93,VALID,0,VALID,104,VALID,0,VALID,22.564,VALID,318,VALID,0,
2012-10-22, 02:56:05,VALID,1007.94,VALID,0,VALID,104,VALID,0,VALID,22.5039,VALID,318,VALID,0,
2012-10-22, 02:57:05,VALID,1007.93,VALID,0,VALID,104,VALID,0.112112,VALID,22.5234,VALID,319,VALID,0.236719,
2012-10-22, 02:58:05,VALID,1007.92,VALID,0,VALID,104,VALID,0.112112,VALID,22.5446,VALID,318,VALID,0,
2012-10-22, 02:59:05,VALID,1007.94,VALID,0,VALID,104,VALID,0.112112,VALID,22.5234,VALID,318,VALID,0.0359375,
2012-10-22, 03:00:05,VALID,1007.95,VALID,0,VALID,104,VALID,0,VALID,22.5251,VALID,319,VALID,0,
2012-10-22, 03:01:05,VALID,1007.91,VALID,0,VALID,104,VALID,0,VALID,22.5234,VALID,319,VALID,0,
2012-10-22, 03:02:05,VALID,1007.96,VALID,0,VALID,104,VALID,0,VALID,22.5446,VALID,318,VALID,0,
2012-10-22, 03:03:05,VALID,1007.97,VALID,0,VALID,104,VALID,0.112112,VALID,22.5446,VALID,318,VALID,0,
2012-10-22, 03:04:05,VALID,1007.96,VALID,0,VALID,104,VALID,0,VALID,22.5446,VALID,318,VALID,0,
2012-10-22, 03:05:05,VALID,1007.98,VALID,0,VALID,104,VALID,0,VALID,22.5446,VALID,319,VALID,0.210156,
2012-10-22, 03:06:05,VALID,1007.98,VALID,0,VALID,104,VALID,0,VALID,22.564,VALID,318,VALID,0.0121094,
2012-10-22, 03:07:05,VALID,1007.99,VALID,0,VALID,104,VALID,0,VALID,22.564,VALID,318,VALID,0.1625,
2012-10-22, 03:08:05,VALID,1007.99,VALID,0,VALID,104,VALID,0,VALID,22.564,VALID,319,VALID,0.0605469,
2012-10-22, 03:09:05,VALID,1008,VALID,0,VALID,104,VALID,0.112112,VALID,22.5623,VALID,319,VALID,0.0160156,
2012-10-22, 03:10:05,VALID,1008.01,VALID,0,VALID,104,VALID,0.112112,VALID,22.5623,VALID,318,VALID,0.289453,
2012-10-22, 03:11:05,VALID,1008.01,VALID,0,VALID,104,VALID,0,VALID,22.5818,VALID,318,VALID,0.398047,
2012-10-22, 03:12:05,VALID,1008.02,VALID,0,VALID,104,VALID,0,VALID,22.603,VALID,319,VALID,0.393359,
2012-10-22, 03:13:05,VALID,1008.02,VALID,0,VALID,104,VALID,0.112112,VALID,22.5835,VALID,318,VALID,0.0191406,
2012-10-22, 03:14:05,VALID,1008.05,VALID,0,VALID,104,VALID,0,VALID,22.603,VALID,318,VALID,0.0941406,
2012-10-22, 03:15:05,VALID,1008.06,VALID,0,VALID,104,VALID,0,VALID,22.5835,VALID,318,VALID,0,
2012-10-22, 03:16:05,VALID,1008.04,VALID,0,VALID,104,VALID,0,VALID,22.564,VALID,318,VALID,0,
2012-10-22, 03:17:05,VALID,1008.03,VALID,0,VALID,104,VALID,0,VALID,22.5429,VALID,318,VALID,0,
2012-10-22, 03:18:05,VALID,1008.03,VALID,0,VALID,104,VALID,0,VALID,22.564,VALID,318,VALID,0,
2012-10-22, 03:19:05,VALID,1007.98,VALID,0,VALID,104,VALID,0,VALID,22.564,VALID,318,VALID,0,
2012-10-22, 03:20:05,VALID,1008,VALID,0,VALID,104,VALID,0,VALID,22.5446,VALID,318,VALID,0,
2012-10-22, 03:21:05,VALID,1008,VALID,0,VALID,104,VALID,0,VALID,22.5446,VALID,318,VALID,0,
2012-10-22, 03:22:05,VALID,1007.98,VALID,0,VALID,104,VALID,0.112112,VALID,22.5446,VALID,318,VALID,0,
2012-10-22, 03:23:05,VALID,1007.96,VALID,0,VALID,104,VALID,0,VALID,22.5251,VALID,318,VALID,0,
2012-10-22, 03:24:05,VALID,1007.92,VALID,0,VALID,104,VALID,0,VALID,22.5056,VALID,318,VALID,0,
2012-10-22, 03:25:05,VALID,1007.93,VALID,0,VALID,104,VALID,0.112112,VALID,22.5251,VALID,319,VALID,0,
2012-10-22, 03:26:05,VALID,1007.94,VALID,0,VALID,104,VALID,0,VALID,22.4844,VALID,319,VALID,0,
2012-10-22, 03:27:05,VALID,1007.96,VALID,0,VALID,104,VALID,0,VALID,22.5056,VALID,319,VALID,0,
2012-10-22, 03:28:05,VALID,1007.94,VALID,0,VALID,104,VALID,0,VALID,22.4861,VALID,318,VALID,0,
2012-10-22, 03:29:05,VALID,1007.93,VALID,0,VALID,104,VALID,0,VALID,22.4861,VALID,319,VALID,0,
2012-10-22, 03:30:05,VALID,1007.91,VALID,0,VALID,104,VALID,0,VALID,22.4667,VALID,318,VALID,0,
2012-10-22, 03:31:05,VALID,1007.95,VALID,0,VALID,104,VALID,0,VALID,22.4472,VALID,318,VALID,0,
2012-10-22, 03:32:05,VALID,1007.95,VALID,0,VALID,104,VALID,0,VALID,22.4277,VALID,318,VALID,0,
2012-10-22, 03:33:05,VALID,1007.99,VALID,0,VALID,104,VALID,0.112112,VALID,22.4472,VALID,318,VALID,0,
2012-10-22, 03:34:05,VALID,1007.98,VALID,0,VALID,104,VALID,0,VALID,22.4472,VALID,318,VALID,0,
2012-10-22, 03:35:05,VALID,1007.99,VALID,0,VALID,104,VALID,0,VALID,22.4472,VALID,318,VALID,0,
2012-10-22, 03:36:05,VALID,1007.97,VALID,0,VALID,104,VALID,0,VALID,22.426,VALID,318,VALID,0,
2012-10-22, 03:37:05,VALID,1008,VALID,0,VALID,104,VALID,0,VALID,22.4472,VALID,318,VALID,0,
2012-10-22, 03:38:05,VALID,1008,VALID,0,VALID,104,VALID,0,VALID,22.4667,VALID,318,VALID,0,
2012-10-22, 03:39:05,VALID,1008,VALID,0,VALID,104,VALID,0,VALID,22.4667,VALID,318,VALID,0,
2012-10-22, 03:40:05,VALID,1008.03,VALID,0,VALID,104,VALID,0.112112,VALID,22.4861,VALID,318,VALID,0,
2012-10-22, 03:41:05,VALID,1008.03,VALID,0,VALID,104,VALID,0,VALID,22.4861,VALID,319,VALID,0,
2012-10-22, 03:42:05,VALID,1008.04,VALID,0,VALID,104,VALID,0.112112,VALID,22.4667,VALID,318,VALID,0,
2012-10-22, 03:43:05,VALID,1008.05,VALID,0,VALID,104,VALID,0,VALID,22.4472,VALID,318,VALID,0,
2012-10-22, 03:44:05,VALID,1008.06,VALID,0,VALID,104,VALID,0,VALID,22.4082,VALID,318,VALID,0,
2012-10-22, 03:45:05,VALID,1008.09,VALID,0,VALID,104,VALID,0,VALID,22.4082,VALID,318,VALID,0,
2012-10-22, 03:46:05,VALID,1008.07,VALID,0,VALID,104,VALID,0.112112,VALID,22.387,VALID,318,VALID,0,
2012-10-22, 03:47:05,VALID,1008.11,VALID,0,VALID,104,VALID,0,VALID,22.3887,VALID,318,VALID,0,
2012-10-22, 03:48:05,VALID,1008.11,VALID,0,VALID,104,VALID,0,VALID,22.3693,VALID,318,VALID,0,
2012-10-22, 03:49:05,VALID,1008.12,VALID,0,VALID,104,VALID,0,VALID,22.3693,VALID,318,VALID,0,
2012-10-22, 03:50:05,VALID,1008.14,VALID,0,VALID,104,VALID,0.112112,VALID,22.3693,VALID,319,VALID,0,
2012-10-22, 03:51:05,VALID,1008.16,VALID,0,VALID,104,VALID,0,VALID,22.3693,VALID,318,VALID,0.136719,
2012-10-22, 03:52:05,VALID,1008.17,VALID,0,VALID,104,VALID,0,VALID,22.3887,VALID,318,VALID,0,
2012-10-22, 03:53:05,VALID,1008.19,VALID,0,VALID,104,VALID,0,VALID,22.3904,VALID,318,VALID,0.0492188,
2012-10-22, 03:54:05,VALID,1008.22,VALID,0,VALID,104,VALID,0,VALID,22.3693,VALID,318,VALID,0,
2012-10-22, 03:55:05,VALID,1008.22,VALID,0,VALID,104,VALID,0,VALID,22.3303,VALID,318,VALID,0,
2012-10-22, 03:56:05,VALID,1008.24,VALID,0,VALID,104,VALID,0,VALID,22.3481,VALID,319,VALID,0.209375,
2012-10-22, 03:57:05,VALID,1008.29,VALID,0,VALID,104,VALID,0,VALID,22.3481,VALID,318,VALID,0.126953,
2012-10-22, 03:58:05,VALID,1008.32,VALID,0,VALID,104,VALID,0,VALID,22.3693,VALID,318,VALID,0.00078125,
2012-10-22, 03:59:05,VALID,1008.37,VALID,0,VALID,104,VALID,0,VALID,22.3887,VALID,338,VALID,0.526953,
2012-10-22, 04:00:05,VALID,1008.39,VALID,0,VALID,104,VALID,0,VALID,22.4277,VALID,74,VALID,0.491797,